[[{"header":{"parameterUnit":"m.s-1","parameterCategory":1,"la1":30.2991,"la2":30.254,"lo1":-89.0895,"lo2":-89.0444,"dy":0.0017,"dx":0.0017,"nx":28,"ny":28,"refTime":"2023-11-06T03:00:00:Z","depth":0,"parameterNumber":2,"parameterNumberName":"U-component_of_WINDS"},"data":[0,0,0,0,0,0,0,0,0,0,0,0,0,0,0,0,0,0,0,0,0,0,0,0,0,0,0,0,0,0,0,0,0,0,0,0,0,0,0,0,0,0,0,0,0,0,0,0,0,0,0,0,0,0,0,0,0,0,-0.6902,-0.6901,0,-0.685,-0.6849,-0.6849,-0.6822,-0.6822,-0.6822,-0.6822,-0.6765,-0.6764,-0.6762,0,0,0,0,0,0,0,0,0,0,0,0,0,-0.6975,-0.6974,-0.6902,-0.6901,-0.6901,-0.685,-0.6849,-0.6849,-0.6822,-0.6822,-0.6822,-0.6822,-0.6766,-0.6764,-0.6762,0,0,0,0,0,0,0,0,0,0,0,0,0,-0.6935,-0.6973,-0.6902,-0.6882,-0.6879,-0.685,-0.6849,-0.6848,-0.6822,-0.6822,-0.6822,-0.6822,-0.6766,-0.6764,-0.6762,-0.6748,0,0,-0.6755,-0.6754,0,0,0,0,0,0,0,0,-0.6937,-0.6932,-0.6885,-0.6883,-0.688,-0.6843,-0.6854,-0.6815,-0.6822,-0.6844,-0.6822,-0.6822,-0.6791,-0.6786,-0.6777,-0.6746,-0.6743,-0.6755,-0.6753,-0.6752,-0.6752,0,0,0,0,0,0,0,-0.694,-0.6934,-0.6881,-0.6885,-0.6881,-0.6874,-0.6868,-0.6847,-0.6818,-0.6842,-0.684,-0.6834,-0.6789,-0.6779,-0.6775,-0.6742,-0.6755,-0.6753,-0.6751,-0.675,-0.6697,-0.6697,0,0,0,0,0,0,-0.6947,-0.6937,-0.6883,-0.688,-0.6909,-0.6872,-0.6866,-0.6855,-0.6818,-0.6812,-0.6834,-0.6833,-0.6783,-0.6778,-0.6773,-0.6754,-0.6752,-0.675,-0.6749,-0.6697,-0.6697,-0.6697,0,0,0,0,0,0,-0.6948,-0.6942,-0.6885,-0.6908,-0.69,-0.6871,-0.6859,-0.6854,-0.6843,-0.6812,-0.6807,-0.6829,-0.6782,-0.6776,-0.6755,-0.6752,-0.6749,-0.6747,-0.6697,-0.6697,-0.6697,-0.6718,0,0,0,0,0,0,-0.6951,-0.6943,-0.6938,-0.6908,-0.6899,-0.6869,-0.6858,-0.6853,-0.684,-0.6838,-0.6806,-0.6801,-0.6782,-0.6758,-0.6753,-0.6749,-0.6745,-0.6698,-0.6697,-0.6697,-0.6717,-0.6719,-0.672,0,0,0,0,0,-0.6953,-0.6946,-0.6938,-0.6932,-0.6893,-0.6869,-0.6864,-0.6843,-0.684,-0.6834,-0.6814,-0.6802,-0.6754,-0.6756,-0.675,-0.6745,-0.6698,-0.6697,-0.6697,-0.6717,-0.6718,-0.672,0,0,0,0,0,0,-0.6975,-0.6941,-0.6933,-0.6915,-0.6895,-0.6865,-0.6857,-0.6846,-0.6825,-0.6824,-0.6799,-0.6792,-0.6773,-0.6757,-0.6761,-0.673,-0.6724,-0.6723,-0.6741,-0.6742,-0.6744,-0.6748,-0.6744,0,0,0,0,0,-0.6978,-0.6963,-0.6933,-0.6921,-0.6911,-0.6886,-0.6875,-0.6861,-0.6839,-0.683,-0.6809,-0.6787,-0.6766,-0.6754,-0.6733,-0.6715,-0.6707,-0.6709,-0.671,-0.6711,-0.671,-0.6698,-0.6699,-0.6697,-0.6697,-0.6697,0,0,-0.6984,-0.6963,-0.6955,-0.6925,-0.6908,-0.6891,-0.6879,-0.6862,-0.6849,-0.6827,-0.6806,-0.6789,-0.6763,-0.6743,-0.6733,-0.6729,-0.6709,-0.6711,-0.6712,-0.671,-0.6698,-0.6699,-0.6699,-0.6697,-0.6697,-0.6697,0,0,-0.6985,-0.6969,-0.6956,-0.694,-0.6915,-0.6898,-0.6895,-0.6866,-0.6854,-0.6833,-0.6816,-0.68,-0.6766,-0.6748,-0.6734,-0.6729,-0.6716,-0.6723,-0.6729,-0.6718,-0.6718,-0.6718,-0.6716,-0.6716,-0.6722,-0.6722,-0.6722,0,-0.6995,-0.6971,-0.6951,-0.6935,-0.6922,-0.6902,-0.6889,-0.6873,-0.6842,-0.6833,-0.683,-0.6787,-0.6767,-0.6743,-0.6742,-0.6732,-0.6727,-0.6727,-0.672,-0.672,-0.672,-0.6717,-0.6717,-0.6723,-0.6723,-0.6723,-0.6723,0,-0.6984,-0.6967,-0.696,-0.6932,-0.6918,-0.6903,-0.688,-0.6868,-0.6856,-0.6839,-0.6817,-0.6794,-0.6768,-0.6762,-0.6749,-0.6735,-0.6733,-0.6725,-0.6719,-0.6721,-0.6718,-0.6717,-0.6725,-0.6724,-0.6724,-0.6724,0,0,-0.6997,-0.6959,-0.6957,-0.6944,-0.6915,-0.6901,-0.6885,-0.6861,-0.6851,-0.6831,-0.6816,-0.6788,-0.6781,-0.6765,-0.675,-0.6741,-0.6738,-0.6733,-0.6732,-0.6735,-0.6721,-0.6727,-0.6726,-0.6729,-0.6729,-0.6729,-0.6723,0,-0.6994,-0.6967,-0.6948,-0.6927,-0.6911,-0.6892,-0.6878,-0.6858,-0.6843,-0.6826,-0.6807,-0.6788,-0.678,-0.677,-0.676,-0.674,-0.6734,-0.674,-0.6714,-0.6714,-0.6721,-0.6725,-0.6731,-0.6726,-0.6722,-0.6721,-0.6721,0,-0.6987,-0.6969,-0.6946,-0.6919,-0.6912,-0.69,-0.6877,-0.6861,-0.6838,-0.6827,-0.681,-0.6795,-0.6776,-0.6772,-0.6745,-0.675,-0.6738,-0.6726,-0.6726,-0.6722,-0.6717,-0.672,-0.6724,-0.6723,-0.6719,-0.672,-0.672,0,-0.6999,-0.6968,-0.6951,-0.694,-0.6908,-0.69,-0.6886,-0.6863,-0.685,-0.6829,-0.682,-0.6797,-0.6785,-0.6767,-0.6745,-0.6744,-0.6721,-0.6714,-0.671,-0.6711,-0.6706,-0.6706,-0.6707,-0.6699,-0.6699,-0.6699,-0.6699,0,-0.6998,-0.6985,-0.6956,-0.6945,-0.6929,-0.6908,-0.6893,-0.6877,-0.6857,-0.6842,-0.6824,-0.681,-0.6783,-0.6765,-0.6748,-0.6728,-0.6723,-0.6713,-0.6708,-0.6714,-0.6715,-0.6705,-0.6705,-0.6699,-0.6699,-0.6699,-0.6699,0,-0.7008,-0.6988,-0.6968,-0.6939,-0.6932,-0.6922,-0.6897,-0.6885,-0.6869,-0.685,-0.6844,-0.6817,-0.6796,-0.6773,-0.6743,-0.6732,-0.6713,-0.6707,-0.6721,-0.6718,-0.6715,-0.6716,-0.6709,-0.6707,-0.6701,-0.6702,-0.6702,0,-0.7008,-0.6998,-0.6969,-0.6958,-0.6945,-0.6928,-0.6915,-0.6893,-0.688,-0.6853,-0.6844,-0.6822,-0.6802,-0.6768,-0.6746,-0.6723,-0.6716,-0.6715,-0.6712,-0.6718,-0.6715,-0.6716,-0.6714,-0.6716,-0.6716,-0.6716,-0.6716,0,-0.7011,-0.7001,-0.6984,-0.6963,-0.6948,-0.6931,-0.6912,-0.6904,-0.6878,-0.6864,-0.6843,-0.6828,-0.6798,-0.6776,-0.675,-0.6734,-0.6721,-0.6718,-0.6715,-0.6721,-0.673,-0.6724,-0.6723,-0.6718,-0.6718,-0.6717,-0.6717,-0.6717,-0.7015,-0.7005,-0.6983,-0.6964,-0.6948,-0.6932,-0.6919,-0.6902,-0.6884,-0.6859,-0.6847,-0.6825,-0.6801,-0.6766,-0.675,-0.6732,-0.6728,-0.6725,-0.6724,-0.6723,-0.6725,-0.6733,-0.6727,-0.6727,-0.6727,-0.6727,-0.6727,0,-0.7016,-0.7002,-0.6985,-0.696,-0.6945,-0.6935,-0.6914,-0.6901,-0.6883,-0.6863,-0.6844,-0.6819,-0.6797,-0.6773,-0.675,-0.674,-0.6733,-0.6734,-0.6734,-0.6731,-0.673,-0.6734,-0.674,-0.674,-0.674,-0.674,-0.674,-0.674,-0.7015,-0.6998,-0.6986,-0.696,-0.6945,-0.6924,-0.6913,-0.6897,-0.6881,-0.6854,-0.6836,-0.6821,-0.6799,-0.6774,-0.6753,-0.6746,-0.6738,-0.6741,-0.6732,-0.6732,-0.6731,-0.673,-0.6734,-0.6739,-0.6739,-0.6735,-0.6735,-0.6735]},{"header":{"parameterUnit":"m.s-1","parameterCategory":1,"la1":30.2991,"la2":30.254,"lo1":-89.0895,"lo2":-89.0444,"dy":0.0017,"dx":0.0017,"nx":28,"ny":28,"refTime":"2023-11-06T03:00:00:Z","depth":0,"parameterNumber":3,"parameterNumberName":"V-component_of_WINDS"},"data":[0,0,0,0,0,0,0,0,0,0,0,0,0,0,0,0,0,0,0,0,0,0,0,0,0,0,0,0,0,0,0,0,0,0,0,0,0,0,0,0,0,0,0,0,0,0,0,0,0,0,0,0,0,0,0,0,0,0,1.0816,1.0815,0,1.0748,1.0748,1.0747,1.0754,1.0755,1.0756,1.0757,1.0684,1.0681,1.0678,0,0,0,0,0,0,0,0,0,0,0,0,0,1.0948,1.0945,1.0816,1.0815,1.0814,1.0749,1.0748,1.0747,1.0753,1.0755,1.0756,1.0757,1.0685,1.0682,1.0678,0,0,0,0,0,0,0,0,0,0,0,0,0,1.0886,1.0945,1.0816,1.081,1.0809,1.0749,1.0748,1.0746,1.0753,1.0755,1.0756,1.0758,1.0686,1.0682,1.0678,1.0619,0,0,1.0664,1.0662,0,0,0,0,0,0,0,0,1.089,1.0881,1.0812,1.081,1.0809,1.0761,1.0767,1.0703,1.0753,1.0774,1.0757,1.0759,1.0708,1.0702,1.0686,1.0615,1.0612,1.0664,1.0661,1.0659,1.0658,0,0,0,0,0,0,0,1.0894,1.0884,1.0789,1.0811,1.0809,1.0809,1.0802,1.0755,1.0733,1.0772,1.0773,1.0765,1.0708,1.069,1.0684,1.0611,1.0664,1.066,1.0657,1.0656,1.0488,1.0486,0,0,0,0,0,0,1.09,1.0888,1.0791,1.0787,1.0854,1.0806,1.0798,1.0775,1.0733,1.0729,1.0763,1.0765,1.0697,1.0689,1.0682,1.0609,1.0659,1.0655,1.0653,1.0489,1.0487,1.0485,0,0,0,0,0,0,1.0903,1.0892,1.0794,1.0838,1.0825,1.0802,1.0776,1.0773,1.0755,1.0727,1.0723,1.075,1.0698,1.0688,1.0634,1.0606,1.0653,1.0649,1.0492,1.0489,1.0486,1.0463,0,0,0,0,0,0,1.0907,1.0893,1.0871,1.0837,1.0823,1.0749,1.0774,1.077,1.0748,1.0749,1.0713,1.0708,1.0698,1.0641,1.063,1.0601,1.0646,1.0494,1.049,1.0487,1.0466,1.046,1.0454,0,0,0,0,0,1.0912,1.0866,1.0869,1.0858,1.0795,1.0747,1.0739,1.0729,1.0745,1.0722,1.0704,1.0709,1.0612,1.0635,1.0623,1.0593,1.0496,1.0491,1.0487,1.0469,1.0461,1.0455,0,0,0,0,0,0,1.0896,1.0862,1.0865,1.0808,1.078,1.0748,1.0719,1.0721,1.0688,1.0691,1.068,1.0671,1.0617,1.06,1.0627,1.0533,1.0556,1.0549,1.0546,1.0538,1.0532,1.0537,1.0642,0,0,0,0,0,1.0886,1.0851,1.0823,1.0775,1.0761,1.0743,1.0721,1.0716,1.0687,1.0675,1.0653,1.0623,1.0586,1.0562,1.0526,1.0465,1.0456,1.0437,1.0432,1.0427,1.042,1.0386,1.0377,1.0472,1.0472,1.0472,0,0,1.0865,1.0842,1.082,1.0771,1.0749,1.0712,1.0733,1.0692,1.0664,1.0669,1.0616,1.0599,1.0566,1.0508,1.0481,1.0492,1.0393,1.0422,1.0418,1.0414,1.038,1.0371,1.0363,1.0469,1.0469,1.047,0,0,1.0806,1.0786,1.0744,1.0722,1.0689,1.0677,1.0667,1.0634,1.0623,1.0571,1.0574,1.054,1.0476,1.0451,1.0431,1.0364,1.0366,1.0352,1.0321,1.0287,1.0279,1.0272,1.0247,1.0238,1.0346,1.0346,1.0346,0,1.0784,1.0728,1.0721,1.068,1.0658,1.0662,1.0618,1.0597,1.0553,1.0537,1.0551,1.047,1.0448,1.0383,1.0367,1.0351,1.0338,1.0355,1.0281,1.0274,1.0268,1.0243,1.0234,1.0345,1.0345,1.0345,1.0345,0,1.0701,1.0663,1.0632,1.0591,1.0566,1.0523,1.0509,1.0484,1.0481,1.0468,1.0414,1.0388,1.0346,1.0331,1.0328,1.0266,1.0273,1.0284,1.0306,1.0257,1.0234,1.0225,1.0342,1.0343,1.0344,1.0344,0,0,1.0629,1.0586,1.0574,1.0555,1.052,1.0489,1.0447,1.0407,1.0385,1.0356,1.0318,1.0265,1.0274,1.0251,1.0245,1.0216,1.0162,1.023,1.0229,1.0216,1.0091,1.0081,1.0071,1.0165,1.0163,1.0162,1.0093,0,1.0566,1.0492,1.0484,1.0418,1.0381,1.0385,1.0348,1.0321,1.0308,1.0274,1.0259,1.022,1.0236,1.0222,1.0193,1.0175,1.0137,1.018,1.0129,1.0127,1.0135,1.0059,1.0049,0.9985,1.0084,1.0082,1.0081,0,1.0482,1.045,1.038,1.0349,1.0333,1.03,1.0263,1.0232,1.0201,1.0193,1.0167,1.0166,1.0121,1.0147,1.0084,1.0114,1.0092,1.008,1.0078,1.0071,1.0099,1.0048,0.9964,0.9954,1.0067,1.0068,1.0069,0,1.0434,1.0374,1.0324,1.0308,1.0271,1.0248,1.0231,1.0203,1.0179,1.0146,1.0131,1.0093,1.0072,1.0042,1.003,1.005,0.9967,0.9993,0.9958,0.9958,0.9938,0.9939,0.9848,0.9928,0.9928,0.9929,0.9929,0,1.0363,1.0319,1.0302,1.0271,1.0222,1.0214,1.0165,1.015,1.0124,1.0089,1.0091,1.0058,1.0045,1.0009,1.0,0.9948,0.9939,0.993,0.9928,0.9929,0.993,0.9913,0.9916,0.9926,0.9927,0.9927,0.9928,0,1.03,1.0288,1.0233,1.0203,1.0194,1.0159,1.0133,1.0102,1.009,1.0046,1.0035,1.0014,0.9973,0.9958,0.9908,0.9901,0.9841,0.9843,0.9851,0.985,0.9815,0.9818,0.9709,0.9694,0.9785,0.9785,0.9784,0,1.0255,1.0221,1.0188,1.0165,1.0148,1.0111,1.0087,1.0078,1.0053,1.0016,0.999,0.9949,0.9915,0.9849,0.9828,0.979,0.979,0.9754,0.9784,0.9786,0.9787,0.9788,0.9784,0.9748,0.9747,0.9746,0.9746,0,1.0174,1.017,1.0136,1.01,1.0072,1.0042,1.0014,0.9995,0.9982,0.9953,0.9911,0.9886,0.9834,0.9793,0.9753,0.9735,0.9737,0.9737,0.9727,0.9726,0.9731,0.9726,0.9834,0.9739,0.974,0.974,0.974,0.9741,1.0117,1.0087,1.0059,1.0021,1.0,0.9973,0.9943,0.9927,0.9892,0.985,0.9847,0.9801,0.9771,0.9718,0.9698,0.9662,0.9671,0.9657,0.9652,0.9648,0.9645,0.9739,0.9655,0.9655,0.9655,0.9655,0.9655,0,1.0035,1.0018,0.9983,0.9944,0.9914,0.9921,0.989,0.9864,0.9824,0.9796,0.9764,0.9715,0.9675,0.9652,0.9612,0.9587,0.9587,0.9577,0.9577,0.9573,0.9639,0.9652,0.9577,0.9577,0.9577,0.9577,0.9577,0.9577,0.9989,0.9938,0.9931,0.9869,0.9851,0.9807,0.9789,0.9764,0.9742,0.9688,0.9655,0.9641,0.9615,0.9573,0.9536,0.9531,0.9515,0.9503,0.9498,0.956,0.9568,0.9576,0.9587,0.95,0.95,0.9434,0.9434,0.9433]}]]